Location: Kaseke
(18.0171°S, 31.0526°E)
Time: 12:43:58
(UTC+00:00)

Helios 1A Rocket - Pass Details

Date: 14 July 2020
Orbit: 563 x 587 km, 98.3° (Epoch: 07 August)

Event Time Altitude Azimuth Distance (km) Brightness Sun altitude
Rises 03:46:34 0° 25° (NNE) 2,740 7.1 -9.9°
Reaches altitude 10° 03:48:45 10° 31° (NNE) 1,853 6.3 -9.4°
Maximum altitude 03:52:35 45° 104° (ESE) 780 4.1 -8.6°
Drops below altitude 10° 03:56:29 10° 177° (S) 1,884 5.4 -7.7°
Sets 03:58:42 0° 183° (S) 2,791 6.2 -7.2°
